Tracking 19831 objects as of 23-Aug-2019
HD Live streaming from Space Station
objects crossing your sky now

OBJECT PN

Track OBJECT PN now!
10-day predictions


NORAD ID: 43638
Int'l Code: 1998-067PN
Perigee: 397.2 km
Apogee: 400.6 km
Inclination: 51.6 °
Period: 92.4 minutes
Semi major axis: 6769 km
RCS: Unknown
Launch date: November 20, 1998
Source: (TBD)
Launch site: TYURATAM MISSILE AND SPACE COMPLEX (TTMTR)
aabbcc
Your satellite tracking list
Your tracking list is empty




NASA's NSSDC Master Catalog

Two Line Element Set (TLE):
1 43638U 98067PN  19234.82725701 +.00004500 +00000-0 +64070-4 0  9995
2 43638 051.6392 021.3224 0002569 352.8262 007.2693 15.58584596049877
Source of the keplerian elements: AFSPC